Location: Altleiningen
(49.5078°N, 8.0741°E)
Time: 05:27:04
(UTC+00:00)

Cosmos 2084 Rocket - Pass Details

Date: 14 June 2025
Orbit: 545 x 576 km, 62.8° (Epoch: 12 July)

Event Time Altitude Azimuth Distance (km) Brightness Sun altitude
Rises 21:20:08 0° 314° (NW) 2,760 8.5 -11.8°
Reaches altitude 10° 21:22:24 10° 310° (NW) 1,854 7.2 -12.0°
Maximum altitude 21:26:28 55° 233° (SW) 673 3.7 -12.3°
Enters shadow 21:29:11 20° 161° (SSE) 1,325 4.6 -12.5°
